Weather Roundup
Issued by NWS

Home | Current Version | Previous Version | Text Only | Print | Product List | Glossary On
Versions: 1 2 3 4 5 6 7 8 9 10 11 12 13 14 15 16 17 18 19 20 21 22 23 24 25 26 27 28 29 30 31 32 33 34 35 36 37 38 39 40 41 42 43 44 45 46 47 48 49 50
000
NZUS93 KARX 162359
HRRWXR

CURRENT HOURLY OBSERVATIONS ACROSS
MUCH OF THE UPPER MISSISSIPPI VALLEY
NATIONAL WEATHER SERVICE LA CROSSE WI
700 PM CDT TUE SEP 16 2014


...SOUTHEAST MINNESOTA...


CITY           SKY/WX    TMP DP  RH WIND       PRES   REMARKS
ROCHESTER      CLEAR     59  46  62 S3        30.06F
ROCHESTER/MAYO FAIR      64  40  40 SW3       30.05F
WINONA         CLEAR     59  46  63 CALM      30.06F
AUSTIN         CLEAR     61  45  55 CALM      30.05F
ALBERT LEA     CLEAR     63  45  51 CALM      30.05S
DODGE CENTER   CLEAR     61  46  59 SW3       30.05F
PRESTON        CLEAR     60  50  70 CALM      30.07F
OWATONNA       CLEAR     63  45  51 CALM      30.04F
FARIBAULT      CLEAR     66  43  42 CALM      30.04F
$$

...ELSEWHERE IN MINNESOTA...


CITY           SKY/WX    TMP DP  RH WIND       PRES   REMARKS
MINNEAPOLIS    PTCLDY    64  42  44 S6        30.02F
INTNL FALLS    CLOUDY    56  51  84 CALM      29.95F
DULUTH         PTCLDY    63  43  48 SW10      29.98F
RED WING       CLEAR     63  46  55 CALM      30.03F
REDWOOD FALLS  CLOUDY    64  48  56 SE6       29.99F
MANKATO        CLEAR     64  43  45 S5        30.02F
WORTHINGTON    CLOUDY    63  46  55 S8        30.01F
FAIRMONT       MOCLDY    64  43  45 S6        30.02F
$$

...SOUTHWEST WISCONSIN...


CITY           SKY/WX    TMP DP  RH WIND       PRES   REMARKS
LA CROSSE      CLEAR     64  44  48 S3        30.06F
PRAIRIE DU CHI CLEAR     64  44  48 CALM      30.07F
BOSCOBEL       CLEAR     61  48  62 CALM      30.08F
LONE ROCK      NOT AVBL
PLATTEVILLE    CLEAR     61  46  58 CALM      30.10F
FORT MC COY    CLEAR     61  43  52 CALM      30.08F
VIROQUA        FAIR      60  45  57 SW3       30.08F
WIS DELLS      CLEAR     60  42  52 W5        30.09S
$$

...ELSEWHERE IN WISCONSIN...


CITY           SKY/WX    TMP DP  RH WIND       PRES   REMARKS
MILWAUKEE      CLEAR     56  43  61 SE8       30.09F
MADISON        PTCLDY    56  46  69 CALM      30.09S
GREEN BAY      CLEAR     58  47  66 SW5       30.05F
EAU CLAIRE     NOT AVBL
BLACK RVR FLS  FAIR      63  43  48 CALM      30.07S
MEDFORD        CLEAR     58  44  58 SW3       30.06S
WAUSAU         CLEAR     58  44  60 SW7       30.04F
WIS RAPIDS     CLEAR     56  47  71 SW3       30.08F
MARSHFIELD     CLEAR     58  45  62 SW3       30.06F
RICE LAKE      CLEAR     62  42  48 S5        30.06S
$$

...NORTHEAST IOWA...


CITY           SKY/WX    TMP DP  RH WIND       PRES   REMARKS
WATERLOO       CLEAR     61  45  55 S5        30.06F
DUBUQUE        CLEAR     59  47  64 SW3       30.09F
DECORAH        CLEAR     63  45  51 CALM      30.07F
MASON CITY     CLEAR     61  47  59 S3        30.06F
CHARLES CITY   CLEAR     64  43  45 SW3       30.07F
OELWEIN        CLEAR     63  46  55 CALM      30.08F
$$

...ELSEWHERE IN IOWA...


CITY           SKY/WX    TMP DP  RH WIND       PRES   REMARKS
DES MOINES     CLEAR     65  48  54 S3        30.06F
IOWA CITY      CLEAR     63  48  58 S3        30.09F
FORT DODGE     CLEAR     63  45  51 S5        30.05F
MARSHALLTOWN   CLEAR     61  46  57 S6        30.06F
CEDAR RAPIDS   CLEAR     61  51  70 CALM      30.07F
$$

...NORTHERN ILLINOIS...


CITY           SKY/WX    TMP DP  RH WIND       PRES   REMARKS
CHICAGO-OHARE  CLEAR     67  40  37 N7        30.09S
DUPAGE         CLEAR     60  43  53 NW6       30.09S
CHICAGO-MIDWAY PTCLDY    63  48  58 E7        30.09S
MOLINE         CLEAR     64  45  49 NW3       30.09F
ROCKFORD       CLEAR     61  43  51 W3        30.11S
STERLING       CLEAR     57  46  67 CALM      30.10S
PEORIA         CLEAR     61  48  62 CALM      30.10S
$$

NOTE: "FAIR" INDICATES FEW OR NO CLOUDS BELOW 12,000 FEET WITH NO
SIGNIFICANT WEATHER AND/OR OBSTRUCTIONS TO VISIBILITY. WIND
SPEEDS ARE IN MILES-PER-HOUR.



USA.gov is the U.S. government's official web portal to all federal, state and local government web resources and services.